FW8347 Weather Reports


Display with metric or nautical units.
time (UTC)temp
F
wind
direction
speed
MPH
gust
MPH
rain 1hr
in
rain 24hr
in
rain mn
in
humidity
%
barometer
mb
20260504050108 54 225 7.0 12.0 0.00 0.00 0.00 60 1008.1
20260504044545 54 234 6.0 11.0 0.00 0.00 0.00 61 1008.2
20260504043047 53 227 3.0 7.0 0.00 0.00 0.00 62 1008.2
20260504041546 52 228 3.0 8.0 0.00 0.00 0.00 64 1008.3
20260504040048 51 242 1.0 4.0 0.00 0.00 0.00 68 1008.3
20260504034548 51 0 0.0 2.0 0.00 0.00 0.00 71 1008.3
20260504033047 52 0 0.0 3.0 0.00 0.00 0.00 72 1008.2
20260504031603 52 0 0.0 3.0 0.00 0.00 0.00 67 1008.6
20260504030046 52 256 2.0 7.0 0.00 0.00 0.00 68 1008.6
20260504024543 50 238 3.0 7.0 0.00 0.00 0.00 73 1008.6
20260504023041 50 0 0.0 1.0 0.00 0.00 0.00 78 1008.9
20260504021546 50 224 1.0 4.0 0.00 0.00 0.00 79 1008.9
20260504020045 49 218 2.0 5.0 0.00 0.00 0.00 81 1008.9
20260504014545 48 215 2.0 5.0 0.00 0.00 0.00 85 1008.9
20260504013044 48 219 2.0 5.0 0.00 0.00 0.00 87 1009.2
20260504011544 48 283 2.0 7.0 0.00 0.00 0.00 86 1009.4
20260504010047 48 279 6.0 10.0 0.00 0.00 0.00 86 1009.5
20260504004545 49 300 10.0 18.0 0.00 0.00 0.00 83 1009.8
20260504003047 50 288 16.0 23.0 0.00 0.00 0.00 80 1009.8
20260504001559 51 280 15.0 22.0 0.00 0.00 0.00 74 1009.3
20260504000045 52 288 18.0 29.0 0.00 0.00 0.00 72 1009.4
20260503234539 53 279 19.0 30.0 0.00 0.00 0.00 66 1009.0
20260503233045 52 281 13.0 21.0 0.00 0.00 0.00 66 1008.8
20260503231554 49 297 10.0 17.0 0.00 0.00 0.00 70 1008.6
20260503230045 48 73 2.0 4.0 0.00 0.00 0.00 75 1008.5
20260503224547 47 150 0.0 5.0 0.00 0.00 0.00 71 1008.4
20260503223044 46 150 2.0 11.0 0.00 0.00 0.00 73 1008.5
20260503221538 45 98 4.0 8.0 0.00 0.00 0.00 74 1009.0
20260503220049 45 115 4.0 8.0 0.00 0.00 0.00 74 1009.5
20260503214552 45 74 4.0 9.0 0.00 0.00 0.00 71 1009.4
20260503213106 46 99 5.0 8.0 0.00 0.00 0.00 70 1009.0
20260503211618 46 96 6.0 9.0 0.00 0.00 0.00 66 1009.0
20260503210047 46 96 6.0 10.0 0.00 0.00 0.00 67 1009.0
20260503204601 45 90 6.0 9.0 0.00 0.00 0.00 70 1009.4
20260503203045 46 82 6.0 9.0 0.00 0.00 0.00 67 1009.4
20260503201542 46 81 5.0 8.0 0.00 0.00 0.00 70 1009.8
20260503200052 46 92 5.0 8.0 0.00 0.00 0.00 70 1009.9
20260503194546 47 67 4.0 7.0 0.00 0.00 0.00 68 1010.0
20260503193046 47 65 3.0 7.0 0.00 0.00 0.00 66 1010.4
20260503191557 47 15 3.0 5.0 0.00 0.00 0.00 65 1010.8
20260503190046 46 15 2.0 4.0 0.00 0.00 0.00 68 1011.2
20260503184603 45 15 2.0 4.0 0.00 0.00 0.00 67 1011.4
20260503183048 46 15 3.0 5.0 0.00 0.00 0.00 67 1011.5
20260503181547 46 15 4.0 5.0 0.00 0.00 0.00 67 1011.6
20260503180045 49 15 3.0 7.0 0.00 0.00 0.00 67 1011.7
20260503174601 48 62 1.0 4.0 0.00 0.00 0.00 61 1011.9
20260503173040 48 62 2.0 5.0 0.00 0.00 0.00 68 1011.9
20260503171547 48 71 3.0 5.0 0.00 0.00 0.00 66 1011.9
20260503081556 38 236 4.0 9.0 0.00 0.00 0.00 78 1013.6